Regional Weather Roundup
Issued by NWS

Home | Current Version | Previous Version | Graphics & Text | Print | Product List | Glossary Off
Versions: 1 2 3 4 5 6 7 8 9 10 11 12 13 14 15 16 17 18 19 20 21 22 23 24 25 26 27 28 29 30 31 32 33 34 35 36 37 38 39 40 41 42 43 44 45 46 47 48 49 50

613
ASUS43 KMKX 251759
RWRWI

WISCONSIN REGIONAL WEATHER ROUNDUP
NATIONAL WEATHER SERVICE MILWAUKEE/SULLIVAN WI
1200 PM CST SUN FEB 25 2018

NOTE: "FAIR" INDICATES FEW OR NO CLOUDS BELOW 12,000 FEET WITH NO
SIGNIFICANT WEATHER AND/OR OBSTRUCTIONS TO VISIBILITY.

WIZ001-002-006>008-014>016-023>028-251900-
NORTHWEST WISCONSIN

CITY           SKY/WX    TMP DP  RH WIND       PRES   REMARKS
SUPERIOR ARPT  CLOUDY    28  19  68 W18G26    29.55R WCI  15
6HR MIN TEMP:  24; 6HR MAX TEMP:  28;

ASHLAND        CLOUDY    26  19  74 SW21G30   29.54R WCI  12
6HR MIN TEMP:  24; 6HR MAX TEMP:  26;

HAYWARD        LGT SNOW  23  17  78 SW16G24   29.59R WCI  10
6HR MIN TEMP:  22; 6HR MAX TEMP:  25; 6HR PCP: TRACE;

SIREN          CLOUDY    23  17  75 W15G21    29.65R WCI  10
CUMBERLAND     CLOUDY    21  14  73 W17       29.65R WCI   7
RICE LAKE      CLOUDY    23  17  77 SW13      29.68R WCI  11
CHETEK         CLOUDY    23  15  71 SW13G21   29.68R WCI  12
LADYSMITH      CLOUDY    24  19  80 SW18G24   29.65R WCI  10
EAU CLAIRE     NOT AVBL
MENOMONIE      FAIR      25  15  64 SW16G25   29.73R WCI  12
6HR MIN TEMP:  19; 6HR MAX TEMP:  25;

NEW RICHMOND   PTSUNNY   23  13  65 SW15      29.71R WCI  10
OSCEOLA        CLOUDY    24  14  66 SW15      29.74R WCI  11
$$

WIZ003>005-009-010-017-018-251900-
NORTH CENTRAL WISCONSIN

CITY           SKY/WX    TMP DP  RH WIND       PRES   REMARKS
MANITOWISH WTR LGT SNOW  21  19  93 W18G26    29.51R WCI   6
ARBOR VITAE    LGT SNOW  22  19  87 SW16G28   29.53R WCI   8
WOODRUFF       LGT SNOW  22  19  87 SW16G28   29.53R WCI   8
RHINELANDER    LGT SNOW  20  17  88 W23G32    29.55R FOG     WCI   3
6HR MIN TEMP:  19; 6HR MAX TEMP:  26; 6HR PCP: TRACE;

EAGLE RIVER    LGT SNOW  20  15  81 W20G29    29.51R WCI   5
6HR MIN TEMP:  20; 6HR MAX TEMP:  27;

LAND O LAKES   CLOUDY    22  18  83 W12G22    29.49R FOG     WCI  11
PHILLIPS       CLOUDY    22  18  84 SW14G20   29.57S WCI   9
6HR MIN TEMP:  18; 6HR MAX TEMP:  24;

TOMAHAWK       CLOUDY    20  16  84 W8G17     29.59S FOG     WCI  11
MEDFORD        CLOUDY    22  16  79 W18G24    29.63R WCI   7
MERRILL        CLOUDY    24  18  77 W21       29.62S WCI  10
6HR MIN TEMP:  19; 6HR MAX TEMP:  24;

$$

WIZ029-030-035-036-043>047-251900-
CENTRAL WISCONSIN

CITY           SKY/WX    TMP DP  RH WIND       PRES   REMARKS
WAUSAU         CLOUDY    25  17  72 W23G32    29.64R WCI  10
6HR MIN TEMP:  20; 6HR MAX TEMP:  25; 6HR PCP: TRACE;

MOSINEE        PTSUNNY   25  21  86 W18G26    29.67R WCI  11
MARSHFIELD     FAIR      25  18  74 W18G30    29.66R WCI  11
6HR MIN TEMP:  20; 6HR MAX TEMP:  25; 6HR PCP: TRACE;

STEVENS POINT  CLOUDY    23  20  88 SW8G17    29.69R WCI  14
WAUPACA        FAIR      32  23  70 SW21G26   29.71R WCI  20
WAUTOMA        FAIR      33  19  56 W18G29    29.72S WCI  22
6HR MIN TEMP:  24; 6HR MAX TEMP:  34;

WISC RAPIDS    PTSUNNY   28  19  69 MISG      29.72R
6HR MIN TEMP:  21; 6HR MAX TEMP:  28;

CAMP DOUGLAS   MOSUNNY   30  23  74 W14       29.75R WCI  20
$$

WIZ011>013-019>022-031-037>040-048>050-251900-
NORTHEAST WISCONSIN

CITY           SKY/WX    TMP DP  RH WIND       PRES   REMARKS
ANTIGO         CLOUDY    22  18  85 W21G36    29.59R FOG     WCI   6
SHAWANO        CLOUDY    28  21  76 W20G26    29.66R WCI  15
OCONTO         CLOUDY    27  20  73 W15G33    29.64S WCI  16
STURGEON BAY   CLOUDY    27  21  78 SW24G37   29.63R WCI  12
6HR MIN TEMP:  27; 6HR MAX TEMP:  30;

GREEN BAY      FAIR      31  20  63 SW26G33   29.69R WCI  17
6HR MIN TEMP:  27; 6HR MAX TEMP:  31;

MANITOWOC      FAIR      33  20  58 SW25G35   29.69F WCI  20
6HR MIN TEMP:  28; 6HR MAX TEMP:  33;

APPLETON       PTSUNNY   30  18  59 SW23G32   29.69R WCI  17
CLINTONVILLE   CLOUDY    28  20  70 W24G30    29.69R WCI  14
6HR MIN TEMP:  25; 6HR MAX TEMP:  28;

OSHKOSH        FAIR      32  20  61 SW15G25   29.72S WCI  22
6HR MIN TEMP:  26; 6HR MAX TEMP:  32;

$$

WIZ032>034-041-042-053>061-251900-
SOUTHWEST WISCONSIN

CITY           SKY/WX    TMP DP  RH WIND       PRES   REMARKS
LA CROSSE      FAIR      30  20  66 SW12G17   29.81R WCI  20
6HR MIN TEMP:  23; 6HR MAX TEMP:  30;

SPARTA         FAIR      29  19  67 W13G20    29.78R WCI  18
VIROQUA        FAIR      28  22  76 W16G24    29.77R WCI  17
BOSCOBEL       FAIR      36  20  52 SW22G28   29.85R WCI  25
6HR MIN TEMP:  23; 6HR MAX TEMP:  36;

PRAIRIE DU CHI FAIR      33  19  56 SW12      29.86R WCI  24
PLATTEVILLE    FAIR      33  25  72 SW16G25   29.86R WCI  23
$$

WIZ056-057-062-063-064-067-068-251900-
SOUTH CENTRAL WISCONSIN

CITY           SKY/WX    TMP DP  RH WIND       PRES   REMARKS
REEDSBURG      FAIR      33  19  55 W15G31    29.77S WCI  23
6HR MIN TEMP:  22; 6HR MAX TEMP:  33;

BARABOO/DELLS  FAIR      32  20  61 W16G25    29.76F WCI  21
LONE ROCK      NOT AVBL
MINERAL POINT  FAIR      32  27  80 SW17G23   29.82R WCI  21
MADISON        FAIR      33  20  58 SW21G26   29.82R WCI  21
6HR MIN TEMP:  26; 6HR MAX TEMP:  33;

MIDDLETON      FAIR      34  22  60 SW16G25   29.81R WCI  24
WATERTOWN      FAIR      32  21  63 SW14G26   29.80S WCI  22
MONROE         FAIR      34  21  60 W25G33    29.84R WCI  21
JANESVILLE     SUNNY     37  25  60 SW17G23   29.85S WCI  28
$$

WIZ051-052-058>065-066-070>072-251900-
SOUTHEAST WISCONSIN

CITY           SKY/WX    TMP DP  RH WIND       PRES   REMARKS
MILWAUKEE      FAIR      39  19  44 W18G41    29.80S WCI  30
6HR MIN TEMP:  32; 6HR MAX TEMP:  39;

WAUKESHA       SUNNY     34  19  55 SW22G28   29.81S WCI  22
MILWAUKEE/TIMM SUNNY     36  18  48 W17G38    29.79R WCI  25
RACINE         FAIR      39  22  50 SW16G36   29.84R WCI  30
6HR MIN TEMP:  32; 6HR MAX TEMP:  39;

BURLINGTON     FAIR      35  24  63 W17G24    29.85R WCI  25
KENOSHA        FAIR      39  23  52 W24G36    29.84R WCI  28
6HR MIN TEMP:  32; 6HR MAX TEMP:  39;

FOND DU LAC    FAIR      33  19  56 SW17G29   29.74S WCI  22
6HR MIN TEMP:  28; 6HR MAX TEMP:  33;

SHEBOYGAN      FAIR      34  24  67 W30G38    29.73R WCI  20
6HR MIN TEMP:  29; 6HR MAX TEMP:  34;

WEST BEND      FAIR      34  21  60 W21G33    29.75R WCI  22
JUNEAU         FAIR      31  21  66 SW21G28   29.78F WCI  19
$$

LSZ147-162-251900-
LAKE SUPERIOR

STATION/POSITION TIME  TEMP    WIND        PRES    WAVE
                       AIR SEA DIR/SP/G            HT/PER
                 (UTC) (F)     (DEG/KT/KT) (MB)    (FT/S)
DEVILS ISLAND    1700   27     250/ 34/ 40  997.6R
SAXON HARBOR     1730   27     240/ 11/ 21  999.7R
$$

LMZ867-665-643>646-251900-
LAKE MICHIGAN

STATION/POSITION TIME  TEMP    WIND        PRES    WAVE
                       AIR SEA DIR/SP/G            HT/PER
                 (UTC) (F)     (DEG/KT/KT) (MB)    (FT/S)
NORTHPORT PIER   1740   29                 1001.7R
KEWAUNEE LAKESHO 1730   31     240/ 16/ 23 1004.2R
SHEBOYGAN LAKESH 1700   33     240/ 16/ 19 1007.1R
PORT WASHINGTON  1740   36     260/ 18/ 27 1008.8R
KENOSHA   LAKESH 1700   36     270/ 23/ 30 1010.5
$$

TC  - TEMPERATURE IN CELSIUS
VSB - VISIBILITY IN STATUTE MILES
WCI - WIND CHILL INDEX
HX  - HEAT INDEX





USA.gov is the U.S. government's official web portal to all federal, state and local government web resources and services.